Total_Precipitation_Accumulation
0.04 0.20 0.38 0.43 0.55 0.24 0.01 0.01 0.00 0.00 0.01 0.01 0.01 0.00 0.02 0.09 0.28 0.41 0.15 0.07 0.03 0.02 0.02 0.08 0.15 0.12 0.09 0.11 0.20 0.29 0.32 0.36 0.41 0.44 0.43 0.21 0.11 0.11 0.12 0.15 0.18 0.20 0.16 0.17 0.24 0.31 0.29 0.25 0.28
0.12 0.40 0.60 0.76 0.56 0.05 0.02 0.02 0.02 0.01 0.01 0.00 0.00 0.01 0.01 0.02 0.03 0.06 0.12 0.12 0.04 0.02 0.07 0.15 0.19 0.16 0.13 0.16 0.26 0.34 0.40 0.45 0.53 0.52 0.37 0.13 0.09 0.12 0.15 0.20 0.23 0.18 0.12 0.12 0.16 0.23 0.24 0.22 0.27
0.19 0.34 0.61 0.80 0.20 0.03 0.04 0.04 0.04 0.03 0.01 0.00 0.00 0.00 0.02 0.09 0.09 0.09 0.14 0.07 0.06 0.06 0.13 0.27 0.27 0.23 0.21 0.24 0.34 0.44 0.49 0.48 0.54 0.50 0.27 0.13 0.11 0.12 0.18 0.25 0.20 0.12 0.09 0.08 0.10 0.15 0.16 0.17 0.18
0.25 0.44 0.68 0.44 0.11 0.08 0.09 0.10 0.05 0.02 0.01 0.01 0.00 0.01 0.05 0.10 0.12 0.11 0.10 0.07 0.07 0.08 0.12 0.22 0.27 0.24 0.24 0.30 0.41 0.45 0.40 0.39 0.48 0.41 0.26 0.15 0.15 0.16 0.19 0.17 0.11 0.07 0.07 0.06 0.06 0.09 0.11 0.13 0.13
0.29 0.60 0.68 0.35 0.19 0.16 0.14 0.12 0.06 0.03 0.02 0.03 0.01 0.03 0.08 0.11 0.10 0.12 0.12 0.10 0.11 0.13 0.13 0.21 0.25 0.22 0.22 0.30 0.39 0.43 0.36 0.41 0.45 0.42 0.34 0.19 0.18 0.19 0.20 0.13 0.07 0.04 0.05 0.05 0.04 0.05 0.05 0.07 0.10
0.45 0.80 0.80 0.50 0.24 0.20 0.18 0.14 0.08 0.06 0.05 0.05 0.05 0.05 0.11 0.14 0.14 0.15 0.14 0.16 0.18 0.18 0.18 0.18 0.24 0.23 0.23 0.29 0.35 0.39 0.38 0.46 0.46 0.36 0.30 0.27 0.20 0.18 0.14 0.08 0.05 0.03 0.04 0.06 0.03 0.02 0.04 0.05 0.11
0.56 0.85 0.78 0.46 0.29 0.27 0.21 0.14 0.07 0.06 0.05 0.06 0.08 0.08 0.13 0.17 0.18 0.18 0.19 0.21 0.25 0.25 0.24 0.23 0.23 0.25 0.28 0.34 0.36 0.40 0.43 0.51 0.50 0.33 0.27 0.31 0.20 0.13 0.08 0.04 0.02 0.02 0.03 0.05 0.02 0.02 0.04 0.07 0.11
0.31 0.64 0.84 0.67 0.47 0.40 0.17 0.05 0.03 0.03 0.03 0.04 0.06 0.09 0.16 0.21 0.20 0.24 0.25 0.29 0.31 0.30 0.30 0.26 0.26 0.30 0.35 0.41 0.44 0.43 0.42 0.47 0.44 0.31 0.28 0.30 0.18 0.10 0.06 0.02 0.01 0.01 0.03 0.05 0.03 0.03 0.05 0.07 0.10
0.27 0.49 0.84 0.90 0.53 0.36 0.15 0.07 0.05 0.04 0.04 0.04 0.05 0.06 0.13 0.16 0.18 0.22 0.26 0.31 0.36 0.36 0.37 0.32 0.30 0.33 0.39 0.46 0.49 0.57 0.57 0.57 0.49 0.39 0.34 0.25 0.18 0.16 0.11 0.04 0.03 0.02 0.05 0.06 0.03 0.04 0.05 0.04 0.06
0.35 0.53 0.70 0.62 0.35 0.24 0.18 0.14 0.09 0.09 0.08 0.07 0.08 0.11 0.17 0.21 0.23 0.27 0.30 0.35 0.37 0.40 0.42 0.41 0.41 0.37 0.36 0.40 0.60 0.74 0.64 0.57 0.48 0.51 0.43 0.35 0.30 0.29 0.16 0.11 0.12 0.06 0.06 0.06 0.04 0.05 0.03 0.01 0.01
0.30 0.37 0.38 0.38 0.25 0.15 0.12 0.11 0.12 0.11 0.11 0.11 0.13 0.16 0.20 0.28 0.31 0.34 0.38 0.43 0.46 0.48 0.49 0.42 0.40 0.34 0.34 0.45 0.59 0.74 0.77 0.76 0.74 0.59 0.57 0.50 0.37 0.23 0.10 0.11 0.13 0.08 0.07 0.05 0.04 0.03 0.02 0.02 0.01
0.28 0.26 0.26 0.27 0.18 0.14 0.12 0.11 0.13 0.13 0.15 0.15 0.17 0.20 0.23 0.29 0.35 0.38 0.42 0.46 0.46 0.49 0.52 0.48 0.45 0.42 0.40 0.40 0.47 0.58 0.61 0.61 0.60 0.56 0.49 0.47 0.41 0.29 0.17 0.15 0.19 0.14 0.07 0.04 0.05 0.05 0.04 0.04 0.02
0.29 0.20 0.16 0.18 0.17 0.17 0.15 0.15 0.15 0.16 0.16 0.16 0.21 0.26 0.30 0.33 0.36 0.38 0.39 0.42 0.43 0.45 0.48 0.51 0.54 0.52 0.58 0.56 0.52 0.49 0.52 0.54 0.56 0.59 0.47 0.40 0.36 0.34 0.30 0.21 0.24 0.19 0.09 0.08 0.09 0.04 0.03 0.05 0.02
0.24 0.17 0.19 0.20 0.19 0.17 0.16 0.17 0.17 0.19 0.18 0.18 0.23 0.29 0.34 0.37 0.37 0.38 0.38 0.36 0.36 0.45 0.56 0.60 0.57 0.60 0.57 0.52 0.55 0.58 0.56 0.58 0.60 0.59 0.49 0.42 0.39 0.37 0.38 0.28 0.27 0.20 0.21 0.21 0.10 0.06 0.06 0.07 0.02
0.13 0.17 0.20 0.19 0.18 0.20 0.20 0.19 0.18 0.20 0.19 0.22 0.26 0.31 0.36 0.40 0.40 0.41 0.41 0.38 0.36 0.42 0.56 0.67 0.65 0.67 0.63 0.58 0.60 0.64 0.63 0.60 0.61 0.62 0.51 0.44 0.45 0.44 0.51 0.47 0.37 0.31 0.31 0.27 0.20 0.17 0.10 0.09 0.03
0.17 0.27 0.36 0.26 0.24 0.26 0.26 0.28 0.24 0.27 0.25 0.25 0.25 0.28 0.31 0.34 0.37 0.39 0.40 0.39 0.37 0.40 0.50 0.63 0.64 0.69 0.72 0.71 0.70 0.67 0.63 0.63 0.68 0.70 0.64 0.56 0.52 0.53 0.68 0.69 0.54 0.47 0.44 0.36 0.31 0.21 0.13 0.11 0.08
0.25 0.34 0.36 0.28 0.26 0.26 0.27 0.28 0.25 0.26 0.25 0.24 0.22 0.21 0.22 0.24 0.30 0.34 0.34 0.35 0.36 0.40 0.47 0.51 0.58 0.77 0.81 0.76 0.82 0.82 0.78 0.82 0.85 0.86 0.83 0.75 0.69 0.74 0.90 0.94 0.79 0.66 0.66 0.54 0.40 0.31 0.29 0.18 0.17
0.23 0.19 0.22 0.23 0.21 0.20 0.24 0.23 0.22 0.24 0.22 0.20 0.20 0.18 0.17 0.19 0.24 0.26 0.25 0.26 0.28 0.34 0.39 0.46 0.54 0.66 0.78 0.93 1.01 1.08 1.09 1.09 1.19 1.25 1.22 1.05 0.98 1.01 1.12 1.19 1.12 1.02 0.99 0.88 0.66 0.60 0.52 0.43 0.38
0.16 0.12 0.13 0.18 0.16 0.15 0.17 0.19 0.19 0.19 0.18 0.16 0.15 0.14 0.12 0.11 0.14 0.13 0.13 0.17 0.20 0.25 0.30 0.37 0.53 0.68 0.83 0.95 1.10 1.35 1.51 1.60 1.58 1.58 1.66 1.56 1.36 1.41 1.48 1.40 1.59 1.61 1.49 1.34 1.14 1.08 1.00 0.75 0.51
0.10 0.11 0.12 0.13 0.12 0.11 0.11 0.12 0.12 0.12 0.13 0.13 0.12 0.12 0.10 0.08 0.07 0.06 0.07 0.09 0.12 0.15 0.22 0.29 0.44 0.66 0.89 1.10 1.30 1.49 1.80 1.94 1.93 1.99 1.94 1.89 1.77 1.76 1.66 1.68 1.85 1.87 1.91 1.92 1.63 1.56 1.49 1.14 0.77
0.09 0.10 0.10 0.10 0.10 0.08 0.08 0.09 0.09 0.09 0.10 0.10 0.09 0.10 0.09 0.07 0.07 0.06 0.05 0.06 0.07 0.09 0.14 0.21 0.34 0.55 0.85 1.16 1.41 1.59 1.82 2.07 2.16 2.06 2.01 2.05 2.12 2.15 2.02 1.95 2.01 2.00 2.02 2.14 2.10 1.91 1.82 1.62 1.24
0.10 0.09 0.08 0.08 0.10 0.10 0.10 0.15 0.15 0.14 0.14 0.13 0.12 0.13 0.12 0.11 0.10 0.08 0.06 0.06 0.07 0.10 0.13 0.17 0.31 0.47 0.70 0.97 1.28 1.52 1.77 2.06 2.13 2.09 2.06 2.10 2.21 2.27 2.22 2.17 2.19 2.14 2.05 2.08 2.12 2.04 2.07 2.09 1.76
0.05 0.04 0.05 0.06 0.09 0.09 0.09 0.16 0.17 0.16 0.19 0.20 0.20 0.21 0.18 0.15 0.15 0.12 0.10 0.10 0.12 0.14 0.18 0.24 0.38 0.51 0.72 0.96 1.27 1.56 1.75 1.89 2.05 2.06 1.98 1.91 1.93 1.95 1.94 2.05 2.17 2.13 2.09 2.06 2.18 2.22 2.29 2.16 1.98
0.01 0.02 0.04 0.04 0.06 0.06 0.05 0.14 0.23 0.23 0.22 0.20 0.22 0.22 0.17 0.14 0.14 0.17 0.21 0.22 0.22 0.24 0.30 0.37 0.49 0.69 0.85 0.95 1.09 1.22 1.43 1.69 1.80 1.89 1.91 1.90 1.85 1.73 1.68 1.77 1.86 1.93 1.94 1.94 1.94 2.03 2.11 2.13 2.14
0.01 0.05 0.09 0.10 0.13 0.12 0.10 0.20 0.31 0.27 0.22 0.21 0.22 0.20 0.19 0.21 0.25 0.33 0.43 0.40 0.37 0.40 0.49 0.56 0.62 0.71 0.77 0.77 0.84 0.94 1.10 1.30 1.43 1.52 1.69 1.71 1.72 1.64 1.59 1.57 1.65 1.73 1.74 1.81 1.93 1.88 1.85 1.93 2.00
0.01 0.05 0.12 0.16 0.18 0.21 0.26 0.40 0.44 0.35 0.28 0.24 0.21 0.19 0.21 0.29 0.39 0.54 0.65 0.70 0.64 0.62 0.64 0.61 0.61 0.59 0.60 0.65 0.71 0.77 0.82 0.94 1.04 1.11 1.26 1.36 1.34 1.29 1.24 1.27 1.38 1.55 1.64 1.72 1.79 1.79 1.74 1.72 1.71
0.02 0.03 0.06 0.14 0.15 0.21 0.34 0.51 0.51 0.35 0.29 0.27 0.26 0.23 0.29 0.42 0.57 0.73 0.86 0.93 0.87 0.78 0.72 0.68 0.67 0.64 0.58 0.60 0.67 0.72 0.75 0.76 0.77 0.81 0.81 0.87 0.94 0.96 0.97 1.00 1.13 1.29 1.42 1.46 1.51 1.59 1.61 1.59 1.54
0.02 0.04 0.10 0.22 0.33 0.36 0.39 0.52 0.60 0.49 0.38 0.36 0.38 0.44 0.55 0.73 0.80 0.91 0.98 0.97 0.96 1.00 0.93 0.77 0.71 0.71 0.65 0.73 0.74 0.70 0.68 0.65 0.62 0.63 0.68 0.67 0.76 0.86 0.90 0.90 0.95 1.04 1.14 1.24 1.32 1.39 1.46 1.41 1.36
0.09 0.13 0.20 0.32 0.42 0.56 0.68 0.82 0.69 0.57 0.56 0.54 0.56 0.72 0.82 0.92 1.00 1.02 1.08 1.01 0.89 0.89 0.87 0.84 0.79 0.73 0.74 0.79 0.79 0.69 0.66 0.65 0.63 0.58 0.59 0.64 0.73 0.83 0.86 0.90 0.92 0.92 1.01 1.05 1.12 1.22 1.31 1.28 1.25
0.23 0.35 0.45 0.61 0.65 0.63 0.86 1.06 0.78 0.64 0.65 0.66 0.65 0.63 0.65 0.83 0.94 0.98 1.04 0.97 0.81 0.77 0.68 0.71 0.79 0.79 0.85 0.85 0.78 0.69 0.69 0.71 0.75 0.72 0.64 0.62 0.68 0.70 0.78 0.86 0.85 0.83 0.88 0.93 1.01 1.11 1.15 1.16 1.09